Regional Weather Roundup
Issued by NWS

Home | Current Version | Previous Version | Graphics & Text | Print | Product List | Glossary On
Versions: 1 2 3 4 5 6 7 8 9 10 11 12 13 14 15 16 17 18 19 20 21 22 23 24 25 26 27 28 29 30 31 32 33 34 35 36 37 38 39 40 41 42 43 44 45 46 47 48 49 50
000
ASUS45 KTFX 011610
RWRMT
MONTANA REGIONAL WEATHER ROUNDUP
NATIONAL WEATHER SERVICE GREAT FALLS MT
1000 AM MDT MON JUN 01 2015

NOTE: "FAIR" INDICATES FEW OR NO CLOUDS BELOW 12000 FEET WITH NO
SIGNIFICANT WEATHER AND/OR OBSTRUCTIONS TO VISIBILITY.

MTZ001>007-043-011700-
WEST OF THE DIVIDE

CITY           SKY/WX    TMP DP  RH WIND       PRES   REMARKS
KALISPELL      MOSUNNY   69  49  48 E6        29.87S
MISSOULA       CLOUDY    60  52  74 SE3       29.91F
BUTTE          CLOUDY    57  48  72 CALM      30.00S
MULLAN PASS    CLOUDY    55  46  71 VRB7      29.99R
DEER LODGE       N/A     63  50  63 CALM      29.99F
EUREKA           N/A     63  46  55 CALM      29.91F
HAMILTON         N/A     59  50  72 SE3       29.92R
LIBBY            N/A     63  46  55 CALM      29.89F
RONAN            N/A     70  53  54 N5        29.93S
$$

MTZ008-052>055-011700-
SOUTHWEST MONTANA

CITY           SKY/WX    TMP DP  RH WIND       PRES   REMARKS
BOZEMAN        MOSUNNY   65  52  62 W6        29.94F
DILLON         CLOUDY    62  46  55 E8        29.94F
W YELLOWSTONE  PTSUNNY   57  46  67 NW8       30.07S
THREE FORKS      N/A     64  24  22 W1        29.94S
TWIN BRIDGES     N/A     60  48  64 NE9       29.97F
$$

MTZ009-010-012-014-046-048-049-054-011700-
EAST SLOPES AND CENTRAL MONTANA

CITY           SKY/WX    TMP DP  RH WIND       PRES   REMARKS
CUT BANK       PTSUNNY   64  45  49 N12       29.93R
GREAT FALLS    PTSUNNY   67  49  52 W5        29.90R
HELENA         MOSUNNY   67  52  58 N5        29.91S
CONRAD           N/A     63  53  69 W8        29.96R
$$

MTZ011-013-016-021-045-047-050-051-011700-
NORTH CENTRAL MONTANA

CITY           SKY/WX    TMP DP  RH WIND       PRES   REMARKS
HAVRE          PTSUNNY   69  47  45 NW9       29.85F
LEWISTOWN      PTSUNNY   70  53  54 N3        29.92S
N BAR RANCH    FAIR      72  46  40 W5        29.95S
CHINOOK          N/A     68  46  45 W5        29.85S
FORT BENTON      N/A     66  52  59 SW3       29.89R
$$

MTZ017>020-022>027-061-062-011700-
NORTHEAST MONTANA

CITY           SKY/WX    TMP DP  RH WIND       PRES   REMARKS
GLASGOW        SUNNY     72  56  57 VRB7      29.80S
JORDAN           N/A     78  52  40 NW6       29.83R
SIDNEY         MOSUNNY   72  55  56 S9        29.82F
WOLF POINT     MOSUNNY   74  58  57 VRB5      29.79S
MALTA            N/A     75  51  42 W9        29.79S
PLENTYWOOD       N/A     70  55  60 S10       29.81S
POPLAR           N/A     75  55  50 CALM      29.80S
SCOBEY           N/A     71  55  56 CALM      29.81R
$$

MTZ028>42-056>058-011700-
SOUTHCENTRAL AND SOUTHEAST MONTANA

CITY           SKY/WX    TMP DP  RH WIND       PRES   REMARKS
BAKER          SUNNY     74  59  59 S9        29.89F
BILLINGS       PTSUNNY   68  53  58 SW5       29.90S
LIVINGSTON     MOSUNNY   66  49  54 N9        29.92F
MILES CITY     MOSUNNY   75  55  49 SW7       29.86S
BIG TIMBER       N/A     66  54  63 CALM      29.93F
LAUREL           N/A     68  54  60 CALM      29.90S
ROUNDUP          N/A     69  53  56 CALM      29.82S
$$

REGIONAL REPORTS...DAKOTAS

CITY           SKY/WX    TMP DP  RH WIND       PRES   REMARKS
WILLISTON      SUNNY     71  54  54 VRB6      29.83F
MINOT          SUNNY     66  50  56 SE17G24   29.88F
DICKINSON      MOSUNNY   70  56  61 S17       29.88S
BEACH          FAIR      75  57  53 SW8       29.87F
CROSBY         FAIR      72  55  56 S18       29.81F
WATFORD CITY   FAIR      68  55  64 S13       29.83S
BISMARCK       MOSUNNY   64  51  62 S16       29.95F
GRAND FORKS    CLOUDY    65  44  46 S21G33    30.06F
FARGO          CLOUDY    62  46  55 S16G28    30.09F
BUFFALO SD       N/A     72  57  59 S13       29.85F
RAPID CITY     SUNNY     74  59  59 SE12      29.94F
$$

REGIONAL REPORTS...WYOMING/IDAHO/WASHINGTON

CITY           SKY/WX    TMP DP  RH WIND       PRES   REMARKS
GILLETTE       PTSUNNY   71  58  63 SE8       29.96F
SHERIDAN       PTSUNNY   74  52  46 E6        29.91S
BUFFALO WY     PTSUNNY   72  53  51 NW3       29.98S
CODY           CLOUDY    70  46  43 S8        29.97S
YELLOWSTONE LA   N/A     53  40  61 VRB3      30.16F
IDAHO FALLS    PTSUNNY   66  50  56 NE6       29.93F
SALMON         CLOUDY    57  48  72 W7        29.97R
BOISE          CLOUDY    70  45  40 E16G22    29.84S
SPOKANE        CLOUDY    66  49  54 E12       29.82S
$$

REGIONAL REPORTS...ALBERTA

CITY           SKY/WX    TMP DP  RH WIND       PRES   REMARKS
EDMONTON       PTSUNNY   61  46  59 W7        29.90R
CALGARY        MOSUNNY   63  43  48 S9        29.94F
LETHBRIDGE     PTSUNNY   61  48  63 NW3       29.94F
$$

REGIONAL REPORTS...SASKATCHEWAN

CITY           SKY/WX    TMP DP  RH WIND       PRES   REMARKS
SWIFT CURRENT  SUNNY     68  45  42 N16G22    29.86R
REGINA         MOSUNNY   63  52  67 SE12      29.82R
SASKATOON      SUNNY     64  46  52 NW14G24   29.84R
$$


USA.gov is the U.S. government's official web portal to all federal, state and local government web resources and services.